Volver al catálogo

SL-8 DEB

ActivoVLEO
NORAD 6065·DEBRIS·🇷🇺 Russia

Lanzado Jun 23, 1972 desde Plesetsk Cosmodrome

Loading…

Próximos Pases (próximas 24 horas)

TLE

ActualizadoSource: Space-Track

Época: Sep 14, 2026, 07:17 UTC

1 06065U 72043D   26257.30385550  .00006814  00000-0  49075-3 0  9991
2 06065  74.0586   6.3378 0007673  34.3342 325.8342 15.04346642871253

Sigue SL-8 DEB en tiempo real con AllMySat

Download on the App Store